Regional Weather Roundup
Issued by NWS

Home | Current Version | Previous Version | Graphics & Text | Print | Product List | Glossary On
Versions: 1 2 3 4 5 6 7 8 9 10 11 12 13 14 15 16 17 18 19 20 21 22 23 24 25 26 27 28 29 30 31 32 33 34 35 36 37 38 39 40 41 42 43 44 45 46 47 48 49 50
000
ASUS43 KIND 272059
RWRIN

WEATHER ROUNDUP FOR INDIANA
NATIONAL WEATHER SERVICE INDIANAPOLIS IN
500 PM EDT WED MAY 27 2015

NOTE: "FAIR" INDICATES FEW OR NO CLOUDS BELOW 12,000 FEET WITH NO
SIGNIFICANT WEATHER AND/OR OBSTRUCTIONS TO VISIBILITY.

* - STATION DOES NOT REPORT WEATHER SUCH AS PRECIPITATION OR FOG.

+ - STATION NOT QUALITY CONTROLLED BY THE NATIONAL WEATHER SERVICE.
    USE DATA WITH CAUTION...ESPECIALLY DEWPOINT AND RELATIVE
    HUMIDITY OBSERVATIONS.

INZ001>003-010>013-019-020-272200-
NORTHWEST INDIANA

CITY           SKY/WX    TMP DP  RH WIND       PRES   REMARKS
GARY /AIRPORT/ PTSUNNY   75  55  50 W14G29    30.01R
RENSSELAER +   MOSUNNY   79  59  50 W14       30.01S

$$

LMZ046-743>745-272200-
SOUTHERN LAKE MICHIGAN

STATION/POSITION TIME  TEMP    WIND        PRES    WAVE
                       AIR SEA DIR/SP/G            HT
                 (UTC) (F)     (DEG/KT/KT) (MB)    (FT)
BURNS HARBOR     2000   62     300/  6/  7 1016.6R
MICHIGAN CITY    2000   63     260/ 12/ 16   N/A
5NW MICH CITY    2000   57 52  330/  4/  6   N/A     2

$$

INZ004-005-014>016-021>024-272200-
NORTH CENTRAL INDIANA

CITY           SKY/WX    TMP DP  RH WIND       PRES   REMARKS
ELKHART        MOSUNNY   75  57  53 W16       30.01R
GOSHEN         CLOUDY    73  65  75 W9        30.00S
SOUTH BEND     MOSUNNY   75  58  55 NW17G24   30.01R

$$

INZ006>009-017-018-025>027-272200-
NORTHEAST INDIANA

CITY           SKY/WX    TMP DP  RH WIND       PRES   REMARKS
ANGOLA *+      MOSUNNY   72  64  78 W8        30.00S
FORT WAYNE     CLOUDY    76  67  73 NW17      30.01F

$$

INZ028-029-035-036-043>045-051>053-272200-
WEST CENTRAL INDIANA

CITY           SKY/WX    TMP DP  RH WIND       PRES   REMARKS
CRAWFORDSVL +  TSTM      66  61  82 N8        30.04R
GREENCASTLE +  MOSUNNY   79  54  41 SW5       30.04F
LAFAYETTE      MOSUNNY   78  63  59 W17G28    30.00S
TERRE HAUTE    MOSUNNY   83  59  44 W16       30.04F

$$

INZ030>032-037>040-046>048-054>057-064-065-272200-
CENTRAL INDIANA

CITY           SKY/WX    TMP DP  RH WIND       PRES   REMARKS
GREENWOOD *+   CLOUDY    81  59  47 SW13      30.04F
INDIANAPOLIS   PTSUNNY   79  61  53 SW14      30.01F
-EAGLE CREEK   MOSUNNY   81  58  45 SW13G21   30.02F
KOKOMO *+      CLOUDY    73  63  68 NW23G30   30.01S
MT COMFORT *+  PTSUNNY   79  52  38 SW14G20   30.04S
SHELBYVILLE    CLOUDY    81  64  56 SW14      30.03F

$$

INZ033-034-041-042-049-050-058-059-272200-
EAST CENTRAL INDIANA

CITY           SKY/WX    TMP DP  RH WIND       PRES   REMARKS
MUNCIE         CLOUDY    80  61  52 W16G25    30.03S

$$

INZ060-061-067>069-081>083-085>088-272200-
SOUTHWEST INDIANA

CITY           SKY/WX    TMP DP  RH WIND       PRES   REMARKS
EVANSVILLE     CLOUDY    79  66  64 SW20G26   30.08F
HUNTINGBURG *+ CLOUDY    77  64  65 SW12      30.10S

$$

INZ062-063-066-070>080-084-089>092-272200-
SOUTH CENTRAL AND SOUTHEAST INDIANA

CITY           SKY/WX    TMP DP  RH WIND       PRES   REMARKS
BLOOMINGTON    PTSUNNY   81  60  48 SW13G18   30.05F
MADISON *+     CLOUDY    79  59  50 S13       30.10R
SEYMOUR +      PTSUNNY   82  61  47 S14       30.06S

$$



USA.gov is the U.S. government's official web portal to all federal, state and local government web resources and services.